OneWeb SL0275

operational
NORAD ID: 48993 Int'l Des: 2021-060 Owner: ONEWEBN Country: UK Constellation: oneweb
LEOCIRCULARPOLARONEWEB_TYPE

OneWeb SL0275について

説明を読み込み中...

リアルタイム位置

3D地球を読み込み中...

次回通過

高度履歴

Altitude vs Time

uPlot chart will show altitude changes over time

軌道要素

1 48993U 21060AC 26062.51765235 .00000116 00000-0 27081-3 0 9991
2 48993 87.8998 249.7967 0001560 99.6939 260.4368 13.16593516225654
Epoch: Mar 3, 2026 • Age: 23 hours

現在のステータス

高度 1225.9 km
速度 7.24 km/s
衛星直下点 -73.41°S, 67.38°W
打ち上げ日 Jul 1, 2021
運用期間 4.6 years
タイプ internet

技術仕様

分類 Payload
質量 148.00 kg
乾燥質量 140.00 kg
総質量 148.00 kg
長さ 1.30 m
直径 1.00 m
スパン 5.00 m
形状 Trapezoid+2 pan
製造者 ONEWUS
バスタイプ ARROW
フェーズステータス In Orbit
所有者/国 ONEWEBN/UK

大規模コンステレーション

Loading constellations...